Versailles, OH

2:46 PM EST on November 19, 2017 (GMT -0500)
Darke County

Weather History for KVES - December, 2012

Change the Weather History Date:

Monday, December 10, 2012

  Actual Average (KDAY) Record (KDAY)
Temperature  
Mean Temperature 41 °F -  
Max Temperature 50 °F 39 °F 67 °F (1971)
Min Temperature 32 °F 25 °F -9 °F (1958)
Degree Days  
Heating Degree Days 24    
Moisture  
Dew Point 35 °F    
Average Humidity 95    
Maximum Humidity 100    
Minimum Humidity 87    
Precipitation  
Precipitation 0.00 in - - ()
Sea Level Pressure  
Sea Level Pressure 29.75 in    
Wind  
Wind Speed 11 mph (WNW)    
Max Wind Speed 20 mph    
Max Gust Speed 25 mph    
Visibility 7 miles    
Events      
Averages and records for this station are not official NWS values.
T = Trace of Precipitation, MM = Missing Value Source: NWS Daily Summary

Daily Weather History Graph

Daily Weather History Graph

Search for Another Location

Airport or City:

Trip Planner

Search our weather history database for the weather conditions in past years. The results will help you decide how hot, cold, wet, or windy it might be!

Date:

Astronomy

Dec. 10, 2012 Rise Set
Actual Time 7:50 AM EST 5:12 PM EST
Civil Twilight 7:19 AM EST 5:42 PM EST
Nautical Twilight 6:45 AM EST 6:16 PM EST
Astronomical Twilight 6:12 AM EST 6:49 PM EST
Moon 4:32 AM EST (12/10) 3:01 PM EST (12/10)
Length of Visible Light 10h 23m
Length of Day
9h 22m
Waning Crescent, 10% of the Moon is Illuminated
Dec 10
Waning Crescent
Dec 13
New
Dec 20
First Quarter
Dec 28
Full
Jan 4
Last Quarter

Hourly Weather History & Observations

Time (EST) Temp. Windchill Dew Point Humidity Pressure Visibility Wind Dir Wind Speed Gust Speed Precip Events Conditions
12:15 AM 50.0 °F - 50.0 °F 100% 29.68 in 7.0 mi WNW 10.4 mph - N/A   Overcast
12:35 AM 50.0 °F - 50.0 °F 100% 29.67 in 10.0 mi NW 5.8 mph - N/A   Overcast
12:55 AM 50.0 °F - 50.0 °F 100% 29.67 in 10.0 mi WNW 5.8 mph - N/A   Overcast
1:15 AM 50.0 °F - 50.0 °F 100% 29.67 in 10.0 mi WNW 8.1 mph - N/A   Overcast
1:35 AM 50.0 °F - 48.2 °F 94% 29.67 in 10.0 mi WNW 9.2 mph - N/A   Overcast
1:55 AM 48.2 °F - 46.4 °F 93% 29.68 in 10.0 mi West 10.4 mph - N/A   Overcast
2:15 AM 46.4 °F 40.1 °F 46.4 °F 100% 29.69 in 7.0 mi WNW 15.0 mph 19.6 mph N/A   Overcast
2:35 AM 46.4 °F 40.1 °F 44.6 °F 93% 29.70 in 5.0 mi WNW 15.0 mph 23.0 mph N/A   Overcast
2:55 AM 44.6 °F 38.1 °F 44.6 °F 100% 29.69 in 3.0 mi WNW 13.8 mph 18.4 mph N/A   Overcast
3:15 AM 42.8 °F 36.6 °F 42.8 °F 100% 29.70 in 0.8 mi WNW 11.5 mph 17.3 mph N/A   Overcast
3:55 AM 42.8 °F 36.6 °F 42.8 °F 100% 29.69 in 4.0 mi West 11.5 mph 19.6 mph N/A   Overcast
4:15 AM 42.8 °F 36.6 °F 41.0 °F 93% 29.69 in 5.0 mi WNW 11.5 mph - N/A   Overcast
4:35 AM 41.0 °F 33.9 °F 41.0 °F 100% 29.70 in 1.8 mi WNW 12.7 mph - N/A   Overcast
4:55 AM 41.0 °F 33.1 °F 41.0 °F 100% 29.70 in 1.5 mi West 15.0 mph 20.7 mph N/A   Overcast
5:15 AM 39.2 °F 30.8 °F 39.2 °F 100% 29.69 in 7.0 mi WNW 15.0 mph 24.2 mph N/A   Overcast
5:35 AM 39.2 °F 32.5 °F 39.2 °F 100% 29.68 in 5.0 mi WNW 10.4 mph 21.9 mph N/A   Overcast
5:55 AM 39.2 °F 31.6 °F 39.2 °F 100% 29.69 in 5.0 mi WNW 12.7 mph 20.7 mph N/A   Overcast
6:15 AM 37.4 °F 28.5 °F 37.4 °F 100% 29.70 in 5.0 mi West 15.0 mph - N/A   Overcast
6:35 AM 37.4 °F 30.3 °F 37.4 °F 100% 29.70 in 7.0 mi West 10.4 mph - N/A   Overcast
6:55 AM 37.4 °F 29.3 °F 35.6 °F 93% 29.70 in 7.0 mi West 12.7 mph 18.4 mph N/A   Overcast
7:15 AM 37.4 °F 30.3 °F 35.6 °F 93% 29.70 in 10.0 mi West 10.4 mph 18.4 mph N/A   Overcast
7:35 AM 37.4 °F 29.8 °F 35.6 °F 93% 29.71 in 10.0 mi West 11.5 mph - N/A   Mostly Cloudy
7:55 AM 37.4 °F 31.4 °F 35.6 °F 93% 29.72 in 10.0 mi WNW 8.1 mph - N/A   Mostly Cloudy
8:15 AM 37.4 °F 30.8 °F 35.6 °F 93% 29.72 in 10.0 mi WNW 9.2 mph - N/A   Overcast
8:35 AM 35.6 °F 29.2 °F 33.8 °F 93% 29.71 in 10.0 mi West 8.1 mph - N/A   Mostly Cloudy
8:55 AM 35.6 °F 28.6 °F 33.8 °F 93% 29.71 in 10.0 mi WNW 9.2 mph - N/A   Mostly Cloudy
9:15 AM 37.4 °F 30.3 °F 35.6 °F 93% 29.72 in 10.0 mi WNW 10.4 mph - N/A   Mostly Cloudy
9:35 AM 37.4 °F 30.3 °F 35.6 °F 93% 29.72 in 10.0 mi WNW 10.4 mph - N/A   Overcast
9:55 AM 37.4 °F 29.8 °F 33.8 °F 87% 29.71 in 10.0 mi WNW 11.5 mph - N/A   Overcast
10:15 AM 37.4 °F 29.8 °F 33.8 °F 87% 29.70 in 10.0 mi WNW 11.5 mph 16.1 mph N/A   Overcast
10:35 AM 37.4 °F 28.9 °F 35.6 °F 93% 29.71 in 7.0 mi NW 13.8 mph 18.4 mph N/A   Overcast
10:55 AM 35.6 °F 25.9 °F 33.8 °F 93% 29.71 in 10.0 mi WNW 16.1 mph 21.9 mph N/A   Overcast
11:15 AM 33.8 °F 22.8 °F 32.0 °F 93% 29.73 in 10.0 mi NW 18.4 mph 21.9 mph N/A   Overcast
11:35 AM 33.8 °F 22.5 °F 32.0 °F 93% 29.73 in 10.0 mi WNW 19.6 mph 25.3 mph N/A   Overcast
11:55 AM 32.0 °F 21.2 °F 32.0 °F 100% 29.73 in 10.0 mi WNW 16.1 mph - N/A   Overcast
12:15 PM 32.0 °F 21.6 °F 30.2 °F 93% 29.74 in 10.0 mi WNW 15.0 mph 24.2 mph N/A   Overcast
12:35 PM 32.0 °F 22.1 °F 30.2 °F 93% 29.73 in 10.0 mi WNW 13.8 mph 23.0 mph N/A   Overcast
12:55 PM 32.0 °F 22.1 °F 30.2 °F 93% 29.74 in 10.0 mi WNW 13.8 mph 21.9 mph N/A   Overcast
1:15 PM 32.0 °F 22.5 °F 30.2 °F 93% 29.73 in 10.0 mi NW 12.7 mph 19.6 mph N/A   Overcast
1:35 PM 32.0 °F 24.2 °F 30.2 °F 93% 29.72 in 10.0 mi WNW 9.2 mph 16.1 mph N/A   Overcast
1:55 PM 32.0 °F 22.1 °F 30.2 °F 93% 29.72 in 7.0 mi WNW 13.8 mph 18.4 mph N/A   Overcast
2:15 PM 32.0 °F 20.8 °F 30.2 °F 93% 29.73 in 7.0 mi WNW 17.3 mph 20.7 mph N/A   Overcast
2:35 PM 32.0 °F 22.1 °F 30.2 °F 93% 29.73 in 7.0 mi WNW 13.8 mph - N/A   Overcast
2:55 PM 32.0 °F 22.1 °F 30.2 °F 93% 29.73 in 7.0 mi WNW 13.8 mph 19.6 mph N/A   Overcast
3:15 PM 32.0 °F 24.2 °F 30.2 °F 93% 29.74 in 10.0 mi WNW 9.2 mph - N/A   Overcast
3:35 PM 32.0 °F 23.6 °F 30.2 °F 93% 29.74 in 10.0 mi WNW 10.4 mph - N/A   Overcast
3:55 PM 32.0 °F 23.0 °F 30.2 °F 93% 29.75 in 10.0 mi WNW 11.5 mph - N/A   Overcast
4:15 PM 32.0 °F 25.6 °F 30.2 °F 93% 29.75 in 10.0 mi WNW 6.9 mph - N/A   Overcast
4:35 PM 32.0 °F 24.2 °F 30.2 °F 93% 29.76 in 7.0 mi West 9.2 mph - N/A   Overcast
4:55 PM 32.0 °F 24.8 °F 30.2 °F 93% 29.76 in 7.0 mi West 8.1 mph - N/A   Overcast
5:15 PM 32.0 °F 24.2 °F 30.2 °F 93% 29.77 in 10.0 mi West 9.2 mph - N/A   Overcast
5:35 PM 32.0 °F 24.8 °F 30.2 °F 93% 29.77 in 7.0 mi West 8.1 mph - N/A   Overcast
5:55 PM 32.0 °F 23.0 °F 30.2 °F 93% 29.79 in 7.0 mi West 11.5 mph 16.1 mph N/A   Overcast
6:15 PM 32.0 °F 22.5 °F 30.2 °F 93% 29.80 in 7.0 mi WNW 12.7 mph 19.6 mph N/A   Overcast
6:35 PM 32.0 °F 24.2 °F 30.2 °F 93% 29.80 in 7.0 mi WNW 9.2 mph - N/A   Overcast
6:55 PM 32.0 °F 23.6 °F 30.2 °F 93% 29.81 in 7.0 mi WNW 10.4 mph - N/A   Overcast
7:15 PM 32.0 °F 23.0 °F 30.2 °F 93% 29.82 in 5.0 mi West 11.5 mph 16.1 mph N/A   Overcast
7:35 PM 32.0 °F 23.6 °F 30.2 °F 93% 29.82 in 4.0 mi WNW 10.4 mph - N/A   Overcast
7:55 PM 32.0 °F 22.5 °F 30.2 °F 93% 29.83 in 4.0 mi WNW 12.7 mph - N/A   Overcast
8:15 PM 32.0 °F 24.2 °F 30.2 °F 93% 29.84 in 5.0 mi West 9.2 mph - N/A   Overcast
8:35 PM 32.0 °F 23.0 °F 30.2 °F 93% 29.85 in 5.0 mi West 11.5 mph - N/A   Overcast
8:55 PM 32.0 °F 23.6 °F 30.2 °F 93% 29.85 in 4.0 mi WNW 10.4 mph 18.4 mph N/A   Overcast
9:15 PM 32.0 °F 23.6 °F 30.2 °F 93% 29.85 in 5.0 mi WNW 10.4 mph - N/A   Overcast
9:35 PM 32.0 °F 24.2 °F 30.2 °F 93% 29.85 in 5.0 mi WNW 9.2 mph - N/A   Overcast
9:55 PM 32.0 °F 24.2 °F 32.0 °F 100% 29.86 in 5.0 mi WNW 9.2 mph - N/A   Overcast
10:15 PM 32.0 °F 22.5 °F 32.0 °F 100% 29.87 in 4.0 mi West 12.7 mph 17.3 mph N/A   Overcast
10:35 PM 32.0 °F 23.6 °F 32.0 °F 100% 29.88 in 3.0 mi West 10.4 mph - N/A   Overcast
10:55 PM 32.0 °F 23.0 °F 32.0 °F 100% 29.88 in 2.5 mi West 11.5 mph - N/A   Overcast
11:15 PM 32.0 °F 24.2 °F 32.0 °F 100% 29.88 in 3.0 mi West 9.2 mph - N/A   Overcast
11:35 PM 32.0 °F 24.2 °F 32.0 °F 100% 29.89 in 4.0 mi West 9.2 mph - N/A   Overcast
11:55 PM 32.0 °F 23.6 °F 32.0 °F 100% 29.90 in 4.0 mi West 10.4 mph - N/A   Overcast